Aérodrome :
LOGIN :

S'inscrire | Disclaimer

   EN    FR    IT 

 










Légende :    VFR   VFR Marginal   IFR   IFR Intensif   IFR Très Intensif
Visi : 
Plafond : 
>= 8 km
>= 3000ft
5 à 8 km
1000 à 3000 ft
1500m à 5 km
500 à 1000 ft
800 à 1500m
200 à 500 ft
< 800m
< 200 ft
Symboles :   Orages  Brouillard  Fortes neiges  Fortes précipitations  Vent > 20 kt
SIGMETs :   Divers  Orages  Givrage  Turbulence  Onde Orograph.  Cendres Volcan.







- Altitude de l'aérodrome : 117 ft
- Code IATA : NWI
- Voir les cartes d'approche


EGSH - Norwich

DERNIER METAR :
  • 182050Z 06008KT CAVOK 07/02 Q1028 NOSIG

METARs EXPIRÉS :
  • 182020Z 06007KT CAVOK 07/01 Q1028 NOSIG
  • 181950Z 06009KT CAVOK 07/01 Q1028 NOSIG
  • 181920Z 06009KT CAVOK 07/01 Q1028 NOSIG
  • 181850Z 06008KT CAVOK 07/01 Q1029 NOSIG
  • 181820Z 06008KT CAVOK 07/02 Q1029 NOSIG

TAF TAF EGSH
Valide du 18 à 21h jusqu'au 19 à 00h UTC


181953Z 1821/1824 07009KT CAVOK
BECMG 1821/1824 BKN015
PROB30 1821/1824 8000
ATIS : +44 1603 420 640
Pas de NOTAMs connus pour ce terrain.



MET'MAP, la Météo Aéronautique d'un coup d'oeil ! - Copyright ORBIFLY Décembre 2007 - Disclaimer

ORBIFLY MET'MAP TEAM :

Programmation & Développement : Alexandra Zaïnal
Conception & Développement : Baudouin d'Aumeries
Co-Programmation & Développement : Marc-Olivier Méhu
Soutien technique & logistique : Manuel Goepfert

Contact : metmap@orbifly.com




SOURCES & CREDITS :

   NOAA